Regional Weather Roundup
Issued by NWS

Home | Current Version | Previous Version | Text Only | Print | Product List | Glossary On
Versions: 1 2 3 4 5 6 7 8 9 10 11 12 13 14 15 16 17 18 19 20 21 22 23 24 25 26 27 28 29 30 31 32 33 34 35 36 37 38 39 40 41 42 43 44 45 46 47 48 49 50
000
ASUS44 KLIX 261710
RWRLA
LOUISIANA WEATHER ROUNDUP
NATIONAL WEATHER SERVICE NEW ORLEANS LA
1100 AM CST FRI DEC 26 2014

NOTE: "FAIR" INDICATES FEW OR NO CLOUDS BELOW 12,000 FEET WITH NO
      SIGNIFICANT WEATHER AND/OR OBSTRUCTIONS TO VISIBILITY.
      SKY/WX - SKY CONDITION AND SIGNIFICANT WEATHER.
      TMP - AIR TEMPERATURE.    DP   - DEWPOINT TEMPERATURE.
      RH  - RELATIVE HUMIDITY.  PRES - PRESSURE.
      HX  - HEAT INDEX.         WCI  - WIND CHILL INDEX.

*  THESE STATIONS ARE NOT NWS OR FAA STATIONS AND ARE NOT UNDER
   NWS QUALITY CONTROL.

LAZ040-048-061>063-065-066-069-261800-
SOUTHEAST LOUISIANA

CITY           SKY/WX    TMP DP  RH WIND       PRES   REMARKS
N.O. AUDUBON     N/A     67  54  62 MISG        N/A
N.O. INTL ARPT PTSUNNY   64  53  67 E6        30.21S
N.O. LAKEFRONT MOSUNNY   66  53  63 E12       30.22F
N.O. DOWNTOWN* FAIR      64  52  63 E6        30.22S
SLIDELL        MOSUNNY   62  51  67 E5        30.23F
BATON ROUGE    CLOUDY    60  50  69 E9        30.19F
BOOTHVILLE     SUNNY     64  55  72 NE8       30.22F
BELLE CHASSE   PTSUNNY   69  52  54 E15       30.21F
BOGALUSA*        N/A     60  48  64 E7        30.26F
GALLIANO*      CLOUDY    69  55  60 MISG      30.20S
NEW ROADS*     LGT RAIN  56  50  80 E7        30.18F
GONZALES*      CLOUDY    60  54  80 E7        30.19F
HAMMOND*       NOT AVBL
HOUMA*         CLOUDY    64  55  72 E13       30.19S
PORT FOURCHON* CLOUDY    66  59  77 E13       30.22S

$$

LAZ041-044-053-054-261800-
SOUTHWEST LOUISIANA

CITY           SKY/WX    TMP DP  RH WIND       PRES   REMARKS
LAKE CHARLES   CLOUDY    56  54  93 E12       30.13F
LAFAYETTE      CLOUDY    57  50  77 VRB6      30.16F
PATTERSON      CLOUDY    61  54  77 E8        30.18F
SALT POINT       N/A     73  55  53 VRB5      30.15F
NEW IBERIA     CLOUDY    61  53  75 E10       30.16F
CHENAULT AIRPK NOT AVBL

$$

LAZ027-028-261800-
CENTRAL LOUISIANA

CITY           SKY/WX    TMP DP  RH WIND       PRES   REMARKS
FORT POLK      CLOUDY    55  50  82 SE7       30.12S
ALEXANDRIA INT CLOUDY    53  49  86 E8        30.14F
ALEXANDRIA     CLOUDY    56  48  74 SE6       30.16F

$$

LAZ001-002-261800-
NORTHWEST LOUISIANA

CITY           SKY/WX    TMP DP  RH WIND       PRES   REMARKS
SHREVEPORT     CLOUDY    55  48  77 SE12      30.10F
BARKSDALE AFB  CLOUDY    54  47  79 SE7       30.12F
DTN SHREVEPORT CLOUDY    53  46  77 SE10      30.11F

$$

LAZ014-016-261800-
NORTHEAST LOUISIANA

CITY           SKY/WX    TMP DP  RH WIND       PRES   REMARKS
MONROE         CLOUDY    55  47  74 SE6       30.20F
TALLULAH       CLOUDY    50  45  83 E7        30.22F

$$




USA.gov is the U.S. government's official web portal to all federal, state and local government web resources and services.